Orbital Elements at Epoch 2459200.5 (2020-Dec-17.0) TDB
Reference: JPL 24 (heliocentric ecliptic J2000)
Element | Value | Uncertainty (1-sigma) | Units |
e | .1185609393229685 | 4.343e-08 | |
a | 2.598689170707243 | 1.9578e-08 | au |
q | 2.290586141619766 | 1.2179e-07 | au |
i | 13.08134691727452 | 4.3942e-06 | deg |
node | 160.0636931909648 | 1.7677e-05 | deg |
peri | 64.01335768829473 | 3.0607e-05 | deg |
M | 259.1526789357401 | 3.0386e-05 | deg |
tp | 2459629.139112478569 (2022-Feb-18.63911248) | 0.00013247 | TDB |
period | 1530.135643305374 4.19 | 1.7291e-05 4.734e-08 | d yr |
n | .2352732593185882 | 2.6587e-09 | deg/d |
Q | 2.90679219979472 | 2.1899e-08 | au |
|
| | Orbit Determination Parameters
Additional Information
|